This demonstration page uses our WeatherBlox Daily Observations layout. Learn more.

Left ArrowRight Arrow

44.8408, -93.29828

Hourly Observations for November 18, 2015

Temp ( °F °C ) Dew Point ( °F °C ) Humidity (%) Winds ( mph kmh ) Pressure ( in mb ) Visibility ( mi km ) Precip ( " mm )
12:10 am 00:10 Cloudy with Light Rain 54 12.2 53 11.7 97 97 ESE 12 19 29.38 995 2 3 0.00 0.03
12:53 am 00:53 Cloudy with Mist and Fog 54 12.2 54 12.2 100 100 ESE 9 15 29.36 994 3 5 0.01 0.25
1:38 am 01:38 Cloudy with Light Rain 55 13 54 12 94 94 ESE 10 17 29.35 994 2 3 0.00 0.00
1:53 am 01:53 Cloudy with Light Rain 55 12.8 54 12.2 96 96 E 8 13 29.32 993 3 4 0.05 1.27
1:56 am 01:56 Cloudy with Light Rain 55 13 54 12 94 94 E 9 15 29.32 993 3 5 0.00 0.00
2:10 am 02:10 Cloudy with Light Rain 55 13 54 12 94 94 E 7 11 29.29 992 5 8 0.00 0.00
2:53 am 02:53 Cloudy with Light Rain 55 12.8 54 12.2 96 96 E 7 11 29.26 991 5 8 0.04 1.02
3:53 am 03:53 Cloudy with Mist and Fog 56 13.3 54 12.2 93 93 E 12 19 29.19 988 4 6 0.02 0.51
4:53 am 04:53 Cloudy with Heavy Rain 57 13.9 55 12.8 93 93 ESE 14 22 29.17 988 5 8 0.05 1.27
5:53 am 05:53 Cloudy with Light Rain 58 14.4 55 12.8 90 90 SSE 17 28 29.13 986 5 8 0.16 4.06
6:29 am 06:29 Cloudy with Light Rain 57 13.9 54 12.2 90 90 SE 12 19 29.06 984 10 16 0.03 0.76
6:53 am 06:53 Partly Cloudy 58 14.4 54 12.2 87 87 SE 13 20 29.09 985 10 16 0.03 0.76
7:53 am 07:53 Mostly Cloudy 56 13.3 49 9.4 77 77 S 24 39 29.12 986 10 16 0.00 0.00
8:53 am 08:53 Cloudy 53 11.7 48 8.9 83 83 S 22 35 29.12 986 10 16 0.00 0.00
9:53 am 09:53 Mostly Cloudy 53 11.7 45 7.2 74 74 S 28 44 29.13 986 10 16 0.00 0.00
10:53 am 10:53 Mostly Cloudy 53 11.7 44 6.7 72 72 S 26 43 29.12 986 10 16 0.00 0.00
11:53 am 11:53 Mostly Cloudy 52 11.1 44 6.7 75 75 S 21 33 29.10 985 10 16 0.00 0.00
12:53 pm 12:53 Cloudy with Light Rain 49 9.4 45 7.2 86 86 S 16 26 29.09 985 7 11 0.03 0.76
1:17 pm 13:17 Cloudy with Light Rain 48 8.9 44 6.7 86 86 S 21 33 29.09 985 7 11 0.01 0.25
1:34 pm 13:34 Cloudy with Light Rain 48 9 45 7 87 87 S 16 26 29.09 985 9 14 0.00 0.00
1:53 pm 13:53 Cloudy with Rain 47 8.3 44 6.7 90 90 S 18 30 29.08 985 9 14 0.05 1.27
2:23 pm 14:23 Cloudy with Light Rain 48 8.9 44 6.7 86 86 S 17 28 29.09 985 9 14 0.01 0.25
2:37 pm 14:37 Cloudy with Light Rain 47 8.3 44 6.7 90 90 S 16 26 29.09 985 2 3 0.01 0.25
2:43 pm 14:43 Cloudy with Light Rain 47 8.3 44 6.7 90 90 S 15 24 29.09 985 7 11 0.02 0.51
2:53 pm 14:53 Cloudy with Light Rain 47 8.3 44 6.7 90 90 S 14 22 29.08 985 7 11 0.02 0.51
3:33 pm 15:33 Cloudy with Light Rain 46 7.8 43 6.1 89 89 S 15 24 29.09 985 6 10 0.00 0.03
3:53 pm 15:53 Cloudy with Drizzle 45 7.2 42 5.6 90 90 SSW 17 28 29.11 986 7 11 0.00 0.03
4:06 pm 16:06 Cloudy with Drizzle 45 7 43 6 93 93 SSW 16 26 29.12 986 7 11 0.00 0.00
4:16 pm 16:16 Cloudy with Drizzle 45 7.2 41 5 86 86 S 12 19 29.12 986 8 13 0.00 0.03
4:42 pm 16:42 Cloudy with Light Rain 44 6.7 42 5.6 93 93 SSW 13 20 29.12 986 5 8 0.00 0.03
4:47 pm 16:47 Cloudy with Light Rain 45 7 43 6 93 93 SSW 13 20 29.12 986 3 5 0.00 0.03
4:53 pm 16:53 Cloudy with Light Rain 44 6.7 42 5.6 93 93 S 12 19 29.14 987 3 4 0.00 0.03
5:00 pm 17:00 Cloudy with Drizzle 45 7 43 6 93 93 SSW 12 19 29.15 987 4 6 0.00 0.00
5:10 pm 17:10 Cloudy with Light Rain 44 6.7 41 5 89 89 SSW 14 22 29.15 987 6 10 0.00 0.03
5:19 pm 17:19 Cloudy with Light Rain 44 6.7 41 5 89 89 SSW 12 19 29.15 987 9 14 0.00 0.03
5:36 pm 17:36 Cloudy with Light Rain 44 6.7 41 5 89 89 WSW 14 22 29.18 988 6 10 0.01 0.25
5:53 pm 17:53 Cloudy with Light Rain 44 6.7 41 5 89 89 SW 16 26 29.20 989 7 11 0.02 0.51
6:23 pm 18:23 Cloudy 42 5.6 37 2.8 82 82 WSW 17 28 29.26 991 10 16 0.01 0.25
6:30 pm 18:30 Cloudy 43 6 36 2 76 76 WSW 15 24 29.26 991 10 16 0.00 0.00
6:53 pm 18:53 Mostly Cloudy 42 5.6 34 1.1 73 73 SW 12 19 29.24 990 10 16 0.01 0.25
7:53 pm 19:53 Cloudy 43 6.1 37 2.8 80 80 WSW 16 26 29.27 991 10 16 0.00 0.00
8:17 pm 20:17 Cloudy 43 6.1 38 3.3 82 82 WSW 14 22 29.32 993 10 16 0.00 0.03
8:53 pm 20:53 Cloudy 43 6.1 38 3.3 82 82 WSW 17 28 29.31 993 10 16 0.00 0.03
9:53 pm 21:53 Cloudy 42 5.6 33 0.6 71 71 W 20 31 29.36 994 10 16 0.00 0.00
10:37 pm 22:37 Cloudy with Light Rain 39 3.9 34 1.1 82 82 W 23 37 29.41 996 9 14 0.00 0.03
10:53 pm 22:53 Cloudy 39 3.9 32 0 76 76 W 22 35 29.39 995 10 16 0.00 0.03
11:53 pm 23:53 Cloudy with Light Rain 37 2.8 33 0.6 86 86 W 26 43 29.43 997 5 8 0.01 0.25
11:58 pm 23:58 Cloudy with Light Rain 37 3 32 0 81 81 W 22 35 29.47 998 6 10 0.00 0.00

Powered by AerisWeather